Flag for Bolivia Weather past 2 weeks in Tarija, Bolivia

Now
55 °F

Mostly cloudy.


Feels Like: 55 °F
Forecast: 52 / 73 °F
Wind: 5 mph from Southeast

Location: Tarija Airport

Current Time: Mar 28, 2015 at 1:56:13 AM

Latest Report: Mar 27, 2015 at 11:00 PM


Visibility: N/A

Pressure: 30.27 "Hg

Humidity: 88%

Dew point: 52 °F

Location of TarijaLocation

Historic Weather in Tarija — Graph

°F

Tarija temperature yesterday

Maximum temperature yesterday: 66 °F (at 11:00 AM)
Minimum temperature yesterday: 52 °F (at 5:00 AM)
Average temperature yesterday: 59 °F

Past Weeks' High & Low Weather Summary

 TemperatureHumidityPressure
High84 °F (Mar 13, 3:00 PM)100% (Mar 14, 5:00 AM)30.36 "Hg (Mar 14, 5:00 AM)
Low52 °F (Mar 27, 5:00 AM)45% (Mar 19, 3:00 PM)29.92 "Hg (Mar 13, 4:00 PM)
Average69 °F74%30.14 "Hg
* Reported Mar 13 5:00 AM — Mar 27 11:00 PM, Tarija, Weather by CustomWeather, © 2015

Note: Actual official high and low records may vary slightly from our data, if they occured in-between our weather recording intervals... More about our weather records

Advertising

Tarija weather history for previous 24 hours

 ConditionsComfort  
Time TempWeatherWind HumidityBarometerVisibility
11:00 PM
Fri, Mar 27
55 °FMostly cloudy.5 mph88%30.27 "HgN/A
10:00 PM55 °FMostly cloudy.No wind88%30.27 "HgN/A
9:00 PM55 °FPassing clouds.No wind88%30.24 "HgN/A
8:00 PM57 °FMostly cloudy.No wind88%30.24 "HgN/A
7:00 PM57 °FMostly cloudy.5 mph82%30.21 "HgN/A
6:00 PM59 °FMostly cloudy.6 mph82%30.18 "HgN/A
5:00 PM61 °FMostly cloudy.7 mph72%30.18 "HgN/A
4:00 PM61 °FMostly cloudy.8 mph77%30.18 "HgN/A
3:00 PM63 °FMostly cloudy.6 mph73%30.18 "HgN/A
2:00 PM64 °FOvercast.3 mph68%30.18 "HgN/A
1:00 PM64 °FOvercast.5 mph68%30.21 "HgN/A
12:00 PM64 °FOvercast.No wind64%30.21 "HgN/A
11:00 AM66 °FBroken clouds.No wind64%30.24 "HgN/A
10:00 AM64 °FScattered clouds.No wind73%30.27 "HgN/A
9:00 AM63 °FPartly sunny.No wind73%30.27 "HgN/A
8:00 AM55 °FBroken clouds.No wind88%30.27 "HgN/A
7:00 AM54 °FMore clouds than sun.No wind94%30.24 "HgN/A
6:00 AM52 °FMore clouds than sun.5 mph100%30.21 "HgN/A
5:00 AM52 °FOvercast.5 mph100%30.21 "HgN/A
Weather by CustomWeather, © 2015

See weather overviewHow to use our weather pages